Simultaneous Nadir Overpasses (SNOs) Predictions

Prediction of SNOs between METOP-A and TERRA Satellite Orbit:

Table of predicted SNOs for the next 14.0 days since TLE Epoch: 1/5/2019
Index Date (METOP-A) Time (METOP-A) Lat,Lon (METOP-A) SZA (METOP-A ) Date (TERRA) Time (TERRA) Lat,Lon (TERRA) SZA (TERRA ) Distance(km) Time Diff (sec)
1 01/06/2019 11:06:31 81.44, 63.39 106.67 01/06/2019 11:06:34 81.44, 63.43 106.68 0.72 3
2 01/06/2019 11:57:11 -81.44,-128.89 73.30 01/06/2019 11:56:01 -81.43,-129.03 73.35 2.33 70
3 01/09/2019 06:40:45 81.44, 129.70 106.26 01/09/2019 06:40:48 81.43, 129.77 106.26 1.31 3
4 01/09/2019 07:31:25 -81.44, -62.56 73.71 01/09/2019 07:30:15 -81.43, -62.67 73.76 2.05 70
5 01/12/2019 02:14:59 81.44,-163.60 105.84 01/12/2019 02:15:02 81.45,-163.56 105.85 0.83 3
6 01/12/2019 03:05:39 -81.44, 4.15 74.13 01/12/2019 03:04:29 -81.44, 4.01 74.17 2.32 70
7 01/14/2019 21:49:14 81.44, -97.31 105.32 01/14/2019 21:49:17 81.43, -97.35 105.31 0.85 3
8 01/14/2019 22:39:54 -81.44, 70.44 74.65 01/14/2019 22:38:44 -81.43, 70.24 74.71 3.34 70
9 01/17/2019 17:23:27 81.44, -30.64 104.78 01/17/2019 17:23:30 81.44, -30.80 104.77 2.65 3




NCC Satellite Simultaneous Nadir Overpasses (SNOs) Prediction Service
